Location: Napier
(39.4830°S, 176.9170°E)
Time: 22:10:09
(UTC+13:00)

ISS - Pass Details

Date: 02 February 2019
Orbit: 403 x 411 km, 51.6° (Epoch: 16 February)

Event Time Altitude Azimuth Distance (km) Brightness Sun altitude
Exits shadow 04:31:37 50° 247° (WSW) 542 -3.4 -18.8°
Maximum altitude 04:32:02 54° 215° (SW) 512 -3.4 -18.7°
Drops below altitude 10° 04:35:20 10° 135° (SE) 1,498 0.3 -18.3°
Sets 04:37:29 0° 130° (SE) 2,364 1.8 -18.0°
